Location: Cheny Ridge Estates
(40.6074°N, 111.8785°W)
Time: 05:43:45
(UTC+00:00)

ISS - Pass Details

Date: 03 March 2021
Orbit: 418 x 422 km, 51.6° (Epoch: 16 April)

Event Time Altitude Azimuth Distance (km) Brightness Sun altitude
Exits shadow 13:08:48 - 320° (NW) 1,865 -0.8 -10.1°
Reaches altitude 10° 13:10:09 10° 335° (NNW) 1,500 -1.2 -9.8°
Maximum altitude 13:12:04 14° 10° (N) 1,263 -1.2 -9.5°
Drops below altitude 10° 13:14:00 10° 45° (NE) 1,499 -0.3 -9.1°
Sets 13:16:46 0° 71° (ENE) 2,334 1.6 -8.6°
